Tracking 32142 objects as of 12-Nov-2025
HD Live streaming from Space Station
objects crossing your sky now

STARLINK-35122

Track STARLINK-35122 now!
10-day predictions
STARLINK-35122 is classified as:


NORAD ID: 65510
Int'l Code: 2025-198U
Perigee: 453.6 km
Apogee: 455.0 km
Inclination: 53.2 °
Period: 93.5 minutes
Semi major axis: 6825 km
RCS: Unknown
Launch date: September 5, 2025
Source: United States (US)
Launch site: AIR FORCE EASTERN TEST RANGE (AFETR)
Your satellite tracking list
Your tracking list is empty




NASA's NSSDC Master Catalog

Two Line Element Set (TLE):
1 65510U 25198U   25315.83339756  .00071529  00000-0  17806-2 0  9990
2 65510  53.1620 104.2562 0001061  80.7443 279.3681 15.39635836 10499
Source of the keplerian elements: AFSPC